Location: Owatonna
(44.0840°N, 93.2260°W)
Time: 19:42:33
(UTC-05:00)

Tiangong 1 - Visible Passes

Search period start: 24 July 2017 00:00
Search period end: 03 August 2017 00:00
Orbit: 315 x 342 km, 42.8° (Epoch: 24 July)

Date Brightness Start Highest point End Pass type
(mag) Time Alt. Az. Time Alt. Az. Time Alt. Az.
27 Jul 3.3 04:45:32 10° S 04:46:46 12° SSE 04:48:01 10° ESE visible
28 Jul 2.3 05:02:31 12° SSW 05:04:27 24° SSE 05:06:46 10° E visible
29 Jul 1.4 05:19:34 10° WSW 05:22:11 41° SSE 05:24:50 10° E visible
30 Jul 2.5 04:05:18 21° SE 04:05:18 21° SE 04:07:00 10° ESE visible
31 Jul 1.3 04:22:09 38° S 04:22:24 39° SSE 04:25:00 10° E visible
01 Aug 0.8 04:38:58 30° WSW 04:40:04 59° S 04:42:47 10° E visible
02 Aug 3.7 03:24:44 12° E 03:24:44 12° E 03:25:00 10° E visible
02 Aug 0.7 04:55:47 17° W 04:57:44 67° S 05:00:28 10° E visible
